Starlink 32902

operational
NORAD ID: 62898 Int'l Des: 2025-024 Owner: SPXS Country: US Constellation: starlink
LEOCIRCULAR

About Starlink 32902

Description loading...

Live Position

Loading 3D Globe...

Upcoming Passes

Altitude History

Altitude vs Time

uPlot chart will show altitude changes over time

Two-Line Element Set

1 62898U 25024V 25304.76797073 .00036353 00000-0 13240-2 0 9998
2 62898 43.0024 333.0443 0001783 33.9828 326.1138 15.27582280 42550
Epoch: Oct 31, 2025 • Age: 22 hours

Current Status

Altitude 485.7 km
Velocity 7.62 km/s
Sub-Earth Point -16.49°S, 23.88°E
Launch Date Feb 4, 2025
Age 0.7 years
Type internet

Technical Details

Classification Payload
Mass 730.00 kg
Dry Mass 700.00 kg
Total Mass 730.00 kg
Length 0.30 m
Diameter 4.10 m
Span 29.00 m
Shape Box + pan
Manufacturer SPXS
Bus Type Starlink V2M
Phase Status In Orbit
Owner/State SPXS/US

Large Constellations

Loading constellations...